Aérodrome :
LOGIN :

S'inscrire | Disclaimer

   EN    FR    IT 

 










Légende :    VFR   VFR Marginal   IFR   IFR Intensif   IFR Très Intensif
Visi : 
Plafond : 
>= 8 km
>= 3000ft
5 à 8 km
1000 à 3000 ft
1500m à 5 km
500 à 1000 ft
800 à 1500m
200 à 500 ft
< 800m
< 200 ft
Symboles :   Orages  Brouillard  Fortes neiges  Fortes précipitations  Vent > 20 kt
SIGMETs :   Divers  Orages  Givrage  Turbulence  Onde Orograph.  Cendres Volcan.







- Altitude de l'aérodrome : 26 ft


ETNT - Wittmundhaven AB

DERNIER METAR :
  • 192320Z 25007KT 9999 BKN040 07/04 Q1017 BLU

METARs EXPIRÉS :
  • 192220Z 25007KT 9999 BKN025 BKN045 07/05 Q1017 BLU
  • 192120Z 26008KT 9999 BKN025 BKN045 07/05 Q1017 BLU
  • 192105Z 25008KT 9999 BKN010 BKN050 07/04 Q1017 GRN FCST CANCEL

TAF TAF ETNT
Valide du 20 à 00h jusqu'au 20 à 09h UTC


192300Z 2000/2009 24008KT 9999 NSW SCT010 BKN100
TEMPO 2000/2009 27012G22KT 5000 BR BKN010 BKN040
PROB30 2000/2009 23007KT 4000 BR BKN004 BY ETGL
Pas de NOTAMs connus pour ce terrain.



MET'MAP, la Météo Aéronautique d'un coup d'oeil ! - Copyright ORBIFLY Décembre 2007 - Disclaimer

ORBIFLY MET'MAP TEAM :

Programmation & Développement : Alexandra Zaïnal
Conception & Développement : Baudouin d'Aumeries
Co-Programmation & Développement : Marc-Olivier Méhu
Soutien technique & logistique : Manuel Goepfert

Contact : metmap@orbifly.com




SOURCES & CREDITS :

   NOAA